KF5JED-13 Weather Reports


time (UTC)temp
F
wind
direction
speed
knots
gust
knots
rain 1hr
in
rain 24hr
in
rain mn
in
humidity
%
barometer
mb
20260831085338 71 204 3.5 7.8 0.00 0.00 0.00 56 1016.6
20260831084833 71 200 7.0 8.7 0.00 0.00 0.00 56 1016.7
20260831084330 71 192 6.1 7.8 0.00 0.00 0.00 57 1016.6
20260831083826 71 189 3.5 7.8 0.00 0.00 0.00 56 1016.5
20260831083321 71 180 5.2 7.0 0.00 0.00 0.00 56 1016.5
20260831082820 71 183 5.2 7.0 0.00 0.00 0.00 57 1016.6
20260831082315 71 187 5.2 7.0 0.00 0.00 0.00 56 1016.6
20260831081810 72 179 4.3 6.1 0.00 0.00 0.00 56 1016.5
20260831081305 72 170 5.2 6.1 0.00 0.00 0.00 55 1016.3
20260831080800 73 195 7.0 7.8 0.00 0.00 0.00 54 1016.5
20260831080255 73 194 6.1 8.7 0.00 0.00 0.00 54 1016.6
20260831075752 72 192 5.2 7.0 0.00 0.00 0.00 56 1016.6
20260831075247 71 172 4.3 5.2 0.00 0.00 0.00 58 1016.6
20260831074746 71 182 4.3 5.2 0.00 0.00 0.00 57 1016.7
20260831074240 72 178 4.3 5.2 0.00 0.00 0.00 56 1016.6
20260831073737 72 182 5.2 6.1 0.00 0.00 0.00 55 1016.8
20260831073235 73 181 4.3 7.0 0.00 0.00 0.00 54 1016.6
20260831072730 73 188 4.3 6.1 0.00 0.00 0.00 53 1016.8
20260831072226 75 197 3.5 7.8 0.00 0.00 0.00 52 1016.5
20260831071721 75 200 6.1 10.4 0.00 0.00 0.00 50 1016.5
20260831071215 75 205 4.3 7.8 0.00 0.00 0.00 50 1016.8
20260831070714 76 188 5.2 8.7 0.00 0.00 0.00 49 1016.6
20260831070208 76 204 6.1 11.3 0.00 0.00 0.00 49 1016.8
20260831065703 77 180 9.6 12.2 0.00 0.00 0.00 48 1016.5
20260831065201 77 185 7.0 10.4 0.00 0.00 0.00 48 1016.5
20260831064656 77 177 7.0 10.4 0.00 0.00 0.00 48 1016.6
20260831064151 77 189 7.8 10.4 0.00 0.00 0.00 47 1016.2
20260831063647 77 174 9.6 9.6 0.00 0.00 0.00 47 1016.5
20260831063143 77 174 7.0 12.2 0.00 0.00 0.00 46 1016.2
20260831062642 77 160 8.7 11.3 0.00 0.00 0.00 47 1016.3
20260831062142 76 182 6.1 8.7 0.00 0.00 0.00 48 1016.6
20260831061640 75 193 4.3 6.1 0.00 0.00 0.00 49 1016.3
20260831061136 76 194 4.3 7.8 0.00 0.00 0.00 48 1016.5
20260831060632 76 199 5.2 7.0 0.00 0.00 0.00 47 1016.5
20260831060126 76 198 6.1 7.0 0.00 0.00 0.00 47 1016.6
20260831055625 77 185 5.2 7.0 0.00 0.00 0.00 46 1016.5
20260831055121 77 168 5.2 7.8 0.00 0.00 0.00 46 1016.5
20260831054621 77 159 7.8 8.7 0.00 0.00 0.00 46 1016.3
20260831054115 77 173 6.1 9.6 0.00 0.00 0.00 45 1016.0
20260831053614 77 170 6.1 10.4 0.00 0.00 0.00 45 1016.1
20260831053108 78 166 7.0 10.4 0.00 0.00 0.00 44 1016.1
20260831052607 79 169 8.7 11.3 0.00 0.00 0.00 43 1016.2
20260831052101 79 183 7.8 11.3 0.00 0.00 0.00 42 1016.0
20260831051559 79 162 9.6 12.2 0.00 0.00 0.00 43 1016.0
20260831051059 79 171 9.6 11.3 0.00 0.00 0.00 43 1016.1
20260831050558 80 174 7.8 13.0 0.00 0.00 0.00 42 1016.1
20260831050057 79 169 7.8 11.3 0.00 0.00 0.00 42 1015.9
20260831045556 79 165 7.0 10.4 0.00 0.00 0.00 42 1016.0
20260831045052 80 167 6.1 10.4 0.00 0.00 0.00 42 1015.8
20260831044548 80 177 7.0 10.4 0.00 0.00 0.00 41 1016.0
20260831044043 80 163 9.6 12.2 0.00 0.00 0.00 41 1015.9
20260831043537 80 180 8.7 9.6 0.00 0.00 0.00 41 1015.8
20260831043032 80 177 7.0 10.4 0.00 0.00 0.00 41 1015.8
20260831042527 80 167 10.4 12.2 0.00 0.00 0.00 41 1015.9
20260831042026 80 167 7.0 11.3 0.00 0.00 0.00 41 1015.9
20260831041521 80 172 7.8 11.3 0.00 0.00 0.00 41 1015.9
20260831041016 81 161 8.7 9.6 0.00 0.00 0.00 41 1015.9
20260831040511 82 168 9.6 13.0 0.00 0.00 0.00 40 1015.7
20260831040010 82 164 9.6 13.0 0.00 0.00 0.00 40 1015.8
20260831035507 81 161 8.7 13.0 0.00 0.00 0.00 40 1015.9
20260831035002 82 169 9.6 12.2 0.00 0.00 0.00 40 1015.9
20260831034451 82 189 7.8 10.4 0.00 0.00 0.00 40 1015.9
20260831033947 82 168 9.6 11.3 0.00 0.00 0.00 40 1015.8
20260831033442 82 173 6.1 11.3 0.00 0.00 0.00 40 1015.8
20260831032937 82 163 7.0 11.3 0.00 0.00 0.00 40 1015.7
20260831032432 82 157 6.1 12.2 0.00 0.00 0.00 40 1015.7
20260831031927 82 169 7.8 10.4 0.00 0.00 0.00 40 1015.6
20260831031427 82 163 6.1 10.4 0.00 0.00 0.00 40 1015.7
20260831030921 83 163 7.8 11.3 0.00 0.00 0.00 39 1015.6
20260831030420 83 161 7.8 11.3 0.00 0.00 0.00 39 1015.7
20260831025919 84 172 9.6 12.2 0.00 0.00 0.00 38 1015.5
20260831025418 84 159 7.8 13.0 0.00 0.00 0.00 38 1015.5
20260831024914 84 157 9.6 12.2 0.00 0.00 0.00 38 1015.0
20260831024414 85 163 10.4 13.0 0.00 0.00 0.00 37 1015.5
20260831023913 85 157 9.6 13.0 0.00 0.00 0.00 37 1015.3
20260831023412 85 156 9.6 12.2 0.00 0.00 0.00 37 1015.2
20260831022907 86 151 12.2 14.8 0.00 0.00 0.00 37 1015.1
20260831022406 86 156 7.8 12.2 0.00 0.00 0.00 37 1015.0
20260831021901 86 154 10.4 11.3 0.00 0.00 0.00 37 1015.0
20260831021400 86 163 8.7 13.0 0.00 0.00 0.00 36 1015.1
20260831020856 86 154 9.6 12.2 0.00 0.00 0.00 36 1015.0
20260831020355 86 156 10.4 12.2 0.00 0.00 0.00 36 1015.3
20260831015851 87 163 11.3 12.2 0.00 0.00 0.00 36 1014.9
20260831015347 87 158 9.6 11.3 0.00 0.00 0.00 36 1015.0
20260831014846 87 152 9.6 11.3 0.00 0.00 0.00 35 1015.1
20260831014341 87 158 7.8 11.3 0.00 0.00 0.00 35 1014.8
20260831013837 88 163 10.4 12.2 0.00 0.00 0.00 34 1014.8
20260831013332 88 171 7.8 11.3 0.00 0.00 0.00 34 1014.8
20260831012826 89 164 7.8 10.4 0.00 0.00 0.00 34 1014.9
20260831012322 89 156 9.6 11.3 0.00 0.00 0.00 33 1014.8
20260831011821 90 162 9.6 13.0 0.00 0.00 0.00 33 1014.8
20260831011316 89 168 6.1 11.3 0.00 0.00 0.00 33 1014.7
20260831010812 90 161 7.0 12.2 0.00 0.00 0.00 33 1014.6
20260831010306 91 161 7.0 14.8 0.00 0.00 0.00 32 1014.7
20260831005803 91 158 9.6 14.8 0.00 0.00 0.00 31 1014.7
20260831005258 92 164 8.7 13.9 0.00 0.00 0.00 31 1014.8
20260831004752 93 165 12.2 19.1 0.00 0.00 0.00 30 1014.5
20260831004249 93 165 11.3 15.6 0.00 0.00 0.00 30 1014.6
20260831003744 93 155 11.3 14.8 0.00 0.00 0.00 29 1014.6
20260831003240 94 172 12.2 14.8 0.00 0.00 0.00 29 1014.5
20260831002739 94 156 10.4 15.6 0.00 0.00 0.00 29 1014.5
20260831002238 95 162 19.1 19.1 0.00 0.00 0.00 28 1014.5
20260831001735 95 163 13.0 18.2 0.00 0.00 0.00 28 1014.5
20260831001230 95 175 13.0 19.1 0.00 0.00 0.00 28 1014.5
20260831000726 96 160 13.0 16.5 0.00 0.00 0.00 28 1014.5
20260831000221 96 178 13.0 16.5 0.00 0.00 0.00 27 1014.5
20260830235720 96 158 13.0 16.5 0.00 0.00 0.00 27 1014.5
20260830235215 97 187 9.6 16.5 0.00 0.00 0.00 27 1014.3
20260830234710 97 195 13.9 14.8 0.00 0.00 0.00 27 1014.7
20260830234206 98 182 7.0 13.0 0.00 0.00 0.00 27 1014.7
20260830233701 97 182 6.1 14.8 0.00 0.00 0.00 27 1014.6
20260830233157 98 158 13.9 18.2 0.00 0.00 0.00 26 1014.6
20260830232652 98 177 12.2 13.9 0.00 0.00 0.00 26 1014.7
20260830232149 98 157 10.4 15.6 0.00 0.00 0.00 26 1014.7
20260830231645 99 152 7.8 12.2 0.00 0.00 0.00 26 1014.6
20260830231144 98 173 13.0 19.1 0.00 0.00 0.00 26 1014.6
20260830230639 98 179 8.7 11.3 0.00 0.00 0.00 26 1014.6
20260830230139 98 171 10.4 13.9 0.00 0.00 0.00 26 1014.5
20260830225634 98 166 15.6 18.2 0.00 0.00 0.00 26 1014.5
20260830225128 98 167 11.3 18.2 0.00 0.00 0.00 26 1014.6
20260830224628 99 191 15.6 21.7 0.00 0.00 0.00 25 1014.5
20260830224124 99 158 10.4 13.0 0.00 0.00 0.00 26 1014.6
20260830223621 100 189 13.0 18.2 0.00 0.00 0.00 25 1014.7
20260830223120 99 167 11.3 16.5 0.00 0.00 0.00 26 1014.8
20260830222614 98 198 12.2 18.2 0.00 0.00 0.00 26 1015.0
20260830222105 98 162 9.6 14.8 0.00 0.00 0.00 26 1014.8
20260830221600 99 171 12.2 18.2 0.00 0.00 0.00 26 1014.7
20260830221056 99 169 11.3 13.0 0.00 0.00 0.00 26 1014.7
20260830220551 100 199 12.2 15.6 0.00 0.00 0.00 26 1014.7
20260830220049 99 203 18.2 20.0 0.00 0.00 0.00 26 1014.9
20260830215544 99 176 6.1 16.5 0.00 0.00 0.00 27 1014.8
20260830215038 99 161 9.6 16.5 0.00 0.00 0.00 26 1014.9
20260830214533 99 176 9.6 13.0 0.00 0.00 0.00 26 1014.8
20260830214028 99 165 12.2 19.1 0.00 0.00 0.00 26 1014.8
20260830213527 100 187 12.2 16.5 0.00 0.00 0.00 25 1014.9
20260830213023 99 165 11.3 16.5 0.00 0.00 0.00 26 1014.8
20260830212519 101 184 10.4 15.6 0.00 0.00 0.00 25 1015.0
20260830212014 99 209 10.4 13.0 0.00 0.00 0.00 25 1015.1
20260830211508 99 206 13.0 15.6 0.00 0.00 0.00 25 1015.3
20260830211003 99 210 9.6 14.8 0.00 0.00 0.00 26 1015.1
20260830210503 98 215 12.2 15.6 0.00 0.00 0.00 26 1015.3
20260830210001 98 203 7.0 22.6 0.00 0.00 0.00 26 1015.2
20260830205500 100 213 15.6 18.2 0.00 0.00 0.00 25 1015.5
20260830204955 99 159 15.6 16.5 0.00 0.00 0.00 25 1015.5
20260830204454 99 204 20.0 20.0 0.00 0.00 0.00 26 1015.5
20260830203949 99 212 12.2 15.6 0.00 0.00 0.00 26 1015.6
20260830203446 100 189 9.6 18.2 0.00 0.00 0.00 26 1015.6
20260830202945 98 220 12.2 14.8 0.00 0.00 0.00 27 1015.8
20260830202440 99 215 14.8 21.7 0.00 0.00 0.00 27 1015.7
20260830201937 99 201 11.3 20.9 0.00 0.00 0.00 27 1015.8
20260830201430 98 203 11.3 19.1 0.00 0.00 0.00 27 1015.9
20260830200925 98 232 14.8 16.5 0.00 0.00 0.00 28 1015.9
20260830200420 97 202 13.9 25.2 0.00 0.00 0.00 28 1016.0
20260830195914 99 207 13.9 18.2 0.00 0.00 0.00 27 1016.1
20260830195415 98 210 8.7 18.2 0.00 0.00 0.00 27 1016.0
20260830194913 97 221 11.3 16.5 0.00 0.00 0.00 28 1015.9
20260830194413 96 216 16.5 18.2 0.00 0.00 0.00 29 1016.2
20260830193912 98 218 10.4 14.8 0.00 0.00 0.00 28 1016.2
20260830193411 97 212 14.8 21.7 0.00 0.00 0.00 28 1016.1
20260830192907 98 224 8.7 15.6 0.00 0.00 0.00 28 1016.3
20260830192402 97 238 11.3 22.6 0.00 0.00 0.00 28 1016.5
20260830191857 98 213 10.4 17.4 0.00 0.00 0.00 28 1016.2
20260830191357 98 183 16.5 23.5 0.00 0.00 0.00 27 1016.3
20260830190853 98 196 13.0 15.6 0.00 0.00 0.00 27 1016.7
20260830190348 97 210 17.4 21.7 0.00 0.00 0.00 28 1016.2
20260830185846 98 189 14.8 21.7 0.00 0.00 0.00 27 1016.5
20260830185342 98 172 11.3 20.0 0.00 0.00 0.00 27 1016.5
20260830184837 96 217 11.3 20.0 0.00 0.00 0.00 27 1016.6
20260830184336 96 199 7.0 16.5 0.00 0.00 0.00 28 1016.6
20260830183831 96 203 11.3 21.7 0.00 0.00 0.00 28 1016.8
20260830183331 96 212 14.8 18.2 0.00 0.00 0.00 29 1016.9
20260830182826 96 218 13.9 18.2 0.00 0.00 0.00 29 1016.9
20260830182322 96 210 14.8 20.0 0.00 0.00 0.00 29 1017.0
20260830181818 96 203 10.4 17.4 0.00 0.00 0.00 31 1017.0
20260830181314 96 208 8.7 20.0 0.00 0.00 0.00 31 1017.1
20260830180807 95 203 14.8 18.2 0.00 0.00 0.00 31 1017.5
20260830180302 96 203 15.6 18.2 0.00 0.00 0.00 30 1017.2
20260830175801 96 189 13.9 18.2 0.00 0.00 0.00 31 1017.1
20260830175256 96 206 14.8 21.7 0.00 0.00 0.00 32 1017.5
20260830174750 94 228 11.3 20.0 0.00 0.00 0.00 33 1017.3
20260830174246 94 177 13.9 18.2 0.00 0.00 0.00 33 1017.6
20260830173745 95 197 14.8 20.0 0.00 0.00 0.00 34 1017.7
20260830173241 93 213 10.4 20.9 0.00 0.00 0.00 35 1017.8
20260830172737 94 195 9.6 19.1 0.00 0.00 0.00 35 1017.8
20260830172234 92 197 13.9 20.0 0.00 0.00 0.00 36 1017.8
20260830171729 94 193 19.1 22.6 0.00 0.00 0.00 35 1017.9
20260830171224 92 222 16.5 22.6 0.00 0.00 0.00 37 1017.7
20260830170719 92 213 12.2 18.2 0.00 0.00 0.00 37 1017.9
20260830170218 91 218 20.0 23.5 0.00 0.00 0.00 37 1018.0
20260830165717 92 216 16.5 21.7 0.00 0.00 0.00 38 1018.0
20260830165213 92 211 20.0 24.3 0.00 0.00 0.00 37 1017.9
20260830164710 91 208 11.3 20.0 0.00 0.00 0.00 38 1017.8
20260830164205 90 218 11.3 21.7 0.00 0.00 0.00 39 1017.9
20260830163702 90 212 10.4 24.3 0.00 0.00 0.00 40 1017.8
20260830163158 91 203 13.0 20.0 0.00 0.00 0.00 39 1018.0
20260830162652 90 209 14.8 21.7 0.00 0.00 0.00 40 1018.1
20260830162148 90 206 9.6 19.1 0.00 0.00 0.00 41 1018.1
20260830161642 89 202 16.5 24.3 0.00 0.00 0.00 41 1018.1
20260830161137 89 209 12.2 18.2 0.00 0.00 0.00 43 1018.1
20260830160633 87 200 14.8 23.5 0.00 0.00 0.00 44 1018.2
20260830160128 88 211 11.3 19.1 0.00 0.00 0.00 44 1018.0
20260830155625 87 210 13.0 22.6 0.00 0.00 0.00 45 1017.9
20260830155120 86 214 18.2 23.5 0.00 0.00 0.00 46 1017.9
20260830154615 87 196 15.6 20.0 0.00 0.00 0.00 45 1018.0
20260830154111 86 198 16.5 20.9 0.00 0.00 0.00 47 1018.0
20260830153607 86 208 13.0 20.9 0.00 0.00 0.00 47 1017.8
20260830153106 85 211 12.2 18.2 0.00 0.00 0.00 48 1017.9
20260830152601 85 205 11.3 22.6 0.00 0.00 0.00 48 1017.9
20260830152059 84 215 12.2 19.1 0.00 0.00 0.00 50 1017.8
20260830151554 84 219 15.6 20.0 0.00 0.00 0.00 50 1018.0
20260830151049 84 217 13.0 16.5 0.00 0.00 0.00 50 1018.0
20260830150548 83 215 17.4 20.0 0.00 0.00 0.00 50 1018.0
20260830150043 83 202 19.1 20.0 0.00 0.00 0.00 51 1018.2
20260830145543 82 208 16.5 20.9 0.00 0.00 0.00 51 1017.8
20260830145038 83 208 13.9 17.4 0.00 0.00 0.00 51 1018.1
20260830144534 82 209 12.2 17.4 0.00 0.00 0.00 52 1017.9
20260830144030 81 214 14.8 20.9 0.00 0.00 0.00 53 1017.9
20260830143525 81 211 15.6 24.3 0.00 0.00 0.00 53 1018.0
20260830143023 81 214 14.8 19.1 0.00 0.00 0.00 53 1018.0
20260830142519 80 207 14.8 20.9 0.00 0.00 0.00 54 1017.8
20260830142014 80 214 12.2 21.7 0.00 0.00 0.00 54 1017.9
20260830141504 80 207 7.8 16.5 0.00 0.00 0.00 55 1017.9
20260830141004 80 213 13.0 18.2 0.00 0.00 0.00 55 1017.8
20260830140458 79 204 17.4 18.2 0.00 0.00 0.00 55 1017.9
20260830135958 79 211 13.9 14.8 0.00 0.00 0.00 56 1017.8
20260830135453 79 211 9.6 13.9 0.00 0.00 0.00 57 1017.8
20260830134948 78 213 13.0 14.8 0.00 0.00 0.00 57 1017.7
20260830134444 78 202 9.6 13.0 0.00 0.00 0.00 58 1018.0
20260830133939 77 211 9.6 11.3 0.00 0.00 0.00 59 1017.7
20260830133435 77 207 7.0 13.0 0.00 0.00 0.00 60 1017.8
20260830132930 76 210 7.8 11.3 0.00 0.00 0.00 60 1017.7
20260830132427 76 210 7.8 13.0 0.00 0.00 0.00 61 1017.6
20260830131925 75 206 7.0 11.3 0.00 0.00 0.00 61 1017.7
20260830131420 75 205 5.2 11.3 0.00 0.00 0.00 62 1017.8
20260830130915 75 209 7.0 10.4 0.00 0.00 0.00 62 1017.7
20260830130410 74 211 7.8 9.6 0.00 0.00 0.00 62 1017.8
20260830125909 74 216 7.0 7.8 0.00 0.00 0.00 62 1017.6
20260830125405 74 211 6.1 7.8 0.00 0.00 0.00 62 1017.2
20260830124903 74 200 5.2 7.8 0.00 0.00 0.00 62 1017.3
20260830124357 74 210 7.8 9.6 0.00 0.00 0.00 61 1017.3
20260830123854 74 208 5.2 7.8 0.00 0.00 0.00 62 1017.2
20260830123350 74 213 7.0 8.7 0.00 0.00 0.00 61 1017.3
20260830122848 74 205 4.3 9.6 0.00 0.00 0.00 61 1017.3
20260830122343 74 215 8.7 8.7 0.00 0.00 0.00 61 1017.1
20260830121838 74 212 3.5 10.4 0.00 0.00 0.00 62 1017.2
20260830121338 74 205 5.2 9.6 0.00 0.00 0.00 61 1017.0
20260830120833 74 202 5.2 6.1 0.00 0.00 0.00 61 1017.2
20260830120328 74 212 4.3 7.8 0.00 0.00 0.00 61 1017.1
20260830115824 74 221 4.3 6.1 0.00 0.00 0.00 62 1017.1
20260830115321 74 219 8.7 12.2 0.00 0.00 0.00 60 1016.9
20260830114815 74 207 6.1 10.4 0.00 0.00 0.00 60 1016.9
20260830114311 74 212 8.7 13.0 0.00 0.00 0.00 60 1016.9
20260830113801 73 207 6.1 11.3 0.00 0.00 0.00 61 1016.7
20260830113256 73 203 8.7 9.6 0.00 0.00 0.00 61 1016.6
20260830112752 73 205 6.1 7.8 0.00 0.00 0.00 61 1016.9
20260830112248 72 214 5.2 8.7 0.00 0.00 0.00 62 1017.0
20260830111743 72 203 6.1 10.4 0.00 0.00 0.00 61 1017.0
20260830111239 71 209 5.2 9.6 0.00 0.00 0.00 62 1016.8
20260830110738 70 199 7.8 10.4 0.00 0.00 0.00 63 1017.0
20260830110235 70 174 6.1 8.7 0.00 0.00 0.00 63 1016.5
20260830105734 71 184 6.1 10.4 0.00 0.00 0.00 62 1016.8
20260830105230 71 214 8.7 10.4 0.00 0.00 0.00 60 1016.7
20260830104726 71 196 8.7 9.6 0.00 0.00 0.00 62 1016.8
20260830104223 71 183 6.1 8.7 0.00 0.00 0.00 61 1016.7
20260830103722 72 179 6.1 9.6 0.00 0.00 0.00 60 1016.9
20260830103218 72 178 7.0 7.8 0.00 0.00 0.00 60 1016.9
20260830102715 73 195 5.2 7.8 0.00 0.00 0.00 58 1016.7
20260830102212 74 207 7.0 9.6 0.00 0.00 0.00 56 1016.6
20260830101708 74 209 4.3 7.8 0.00 0.00 0.00 56 1016.7
20260830101203 74 203 7.8 10.4 0.00 0.00 0.00 56 1016.7
20260830100657 73 204 6.1 8.7 0.00 0.00 0.00 57 1016.6
20260830100156 73 197 5.2 9.6 0.00 0.00 0.00 57 1016.5
20260830095650 74 203 7.8 9.6 0.00 0.00 0.00 56 1016.5
20260830095147 74 198 7.0 10.4 0.00 0.00 0.00 55 1016.6
20260830094642 74 217 7.0 9.6 0.00 0.00 0.00 55 1016.5
20260830094137 73 205 7.0 7.8 0.00 0.00 0.00 56 1016.7
20260830093632 73 200 5.2 8.7 0.00 0.00 0.00 56 1016.7
20260830093129 73 205 7.0 9.6 0.00 0.00 0.00 56 1016.5
20260830092623 72 211 7.0 8.7 0.00 0.00 0.00 57 1016.6
20260830092121 72 194 4.3 7.8 0.00 0.00 0.00 58 1016.5
20260830091616 72 202 7.0 10.4 0.00 0.00 0.00 56 1016.7
20260830091114 72 207 5.2 7.8 0.00 0.00 0.00 57 1016.5
20260830090609 72 203 5.2 8.7 0.00 0.00 0.00 56 1016.3
20260830090104 72 197 5.2 8.7 0.00 0.00 0.00 57 1016.3
20260830085559 72 204 4.3 8.7 0.00 0.00 0.00 58 1016.3